DW4273 Weather Reports


Display with metric or nautical units.
time (UTC)temp
F
wind
direction
speed
MPH
gust
MPH
rain 1hr
in
rain 24hr
in
rain mn
in
humidity
%
barometer
mb
20260831053017 70 203 1.0 5.0 0.00 0.00 0.00 88 1016.8
20260831052017 70 180 1.0 4.0 0.00 0.00 0.00 88 1016.9
20260831051017 70 180 1.0 3.0 0.00 0.00 0.00 88 1016.9
20260831050017 70 0.0 3.0 0.00 0.00 0.00 88 1016.9
20260831045017 70 0.0 2.0 0.00 0.00 0.00 88 1016.9
20260831044017 70 0.0 3.0 0.00 0.00 0.00 89 1016.9
20260831043017 70 0.0 2.0 0.00 0.00 0.00 89 1016.9
20260831042037 70 135 1.0 3.0 0.00 0.00 0.00 89 1017.0
20260831041017 70 0.0 1.0 0.00 0.00 0.00 89 1017.0
20260831040117 70 158 1.0 4.0 0.00 0.00 0.00 89 1017.1
20260831035036 69 0.0 1.0 0.00 0.00 0.00 89 1017.2
20260831034017 69 0.0 1.0 0.00 0.00 0.00 89 1017.2
20260831033016 69 0.0 1.0 0.00 0.00 0.00 89 1017.3
20260831032017 70 0.0 0.0 0.00 0.00 0.00 89 1017.4
20260831031017 70 0.0 3.0 0.00 0.00 0.00 89 1017.5
20260831030017 70 0.0 0.0 0.00 0.00 0.00 89 1017.6
20260831025016 70 0.0 0.0 0.00 0.00 0.00 88 1017.6
20260831024017 70 0.0 1.0 0.00 0.00 0.00 88 1017.6
20260831023017 71 0.0 0.0 0.00 0.00 0.00 88 1017.9
20260831022037 71 68 1.0 2.0 0.00 0.00 0.00 88 1017.9
20260831021016 71 0.0 1.0 0.00 0.00 0.00 88 1017.9
20260831020056 71 315 3.0 5.0 0.00 0.00 0.00 88 1018.0
20260831015017 71 0.0 0.0 0.00 0.00 0.00 87 1017.8
20260831014017 71 0.0 0.0 0.00 0.00 0.00 87 1017.9
20260831013017 71 0.0 2.0 0.00 0.00 0.00 87 1017.9
20260831012036 71 0.0 0.0 0.00 0.00 0.00 86 1017.8
20260831011017 72 0.0 0.0 0.00 0.00 0.00 86 1017.8
20260831010037 72 0.0 0.0 0.00 0.00 0.00 85 1017.6
20260831005057 72 0.0 0.0 0.00 0.00 0.00 85 1017.5
20260831004037 72 0.0 0.0 0.00 0.00 0.00 84 1017.4
20260831003057 72 0.0 0.0 0.00 0.00 0.00 84 1017.4
20260831002017 73 0.0 0.0 0.00 0.00 0.00 83 1017.4
20260831001037 73 0.0 0.0 0.00 0.00 0.00 83 1017.4
20260831000017 73 0.0 2.0 0.00 0.00 0.00 82 1017.2
20260830235017 74 180 1.0 2.0 0.00 0.00 0.00 82 1017.3
20260830234017 74 0.0 1.0 0.00 0.00 0.00 80 1017.2
20260830233017 75 0.0 0.0 0.00 0.00 0.00 80 1016.8
20260830232017 75 0.0 0.0 0.00 0.00 0.00 79 1016.5
20260830231017 75 0.0 2.0 0.00 0.00 0.00 78 1016.4
20260830230057 75 180 1.0 2.0 0.00 0.00 0.00 78 1016.2
20260830225017 75 180 1.0 3.0 0.00 0.00 0.00 78 1016.1
20260830224017 75 180 2.0 3.0 0.00 0.00 0.00 78 1016.0
20260830223017 76 158 2.0 3.0 0.00 0.00 0.00 77 1016.1
20260830222017 76 158 1.0 3.0 0.00 0.00 0.00 76 1015.9
20260830221017 76 180 2.0 4.0 0.00 0.00 0.00 76 1015.8
20260830220017 76 158 2.0 4.0 0.00 0.00 0.00 75 1015.7
20260830215017 76 158 2.0 4.0 0.00 0.00 0.00 76 1015.7
20260830214037 76 158 1.0 4.0 0.00 0.00 0.00 76 1015.8
20260830213017 76 113 3.0 4.0 0.00 0.00 0.00 74 1015.7
20260830212017 76 158 1.0 4.0 0.00 0.00 0.00 74 1016.2
20260830211017 76 180 2.0 4.0 0.00 0.00 0.00 74 1016.1
20260830210017 75 90 3.0 5.0 0.00 0.00 0.00 73 1016.1
20260830205017 75 113 3.0 5.0 0.00 0.00 0.00 73 1016.2
20260830204017 75 203 4.0 7.0 0.00 0.00 0.00 74 1016.4
20260830203517 75 203 3.0 5.0 0.00 0.00 0.00 75 1016.4
20260830202517 75 180 2.0 5.0 0.00 0.00 0.00 77 1016.2
20260830201517 75 158 3.0 5.0 0.00 0.00 0.00 78 1016.1
20260830200517 75 180 3.0 5.0 0.00 0.00 0.00 79 1016.4
20260830195537 75 180 3.0 5.0 0.00 0.00 0.00 80 1016.6
20260830194517 75 180 3.0 6.0 0.00 0.00 0.00 79 1016.8
20260830193517 75 158 3.0 4.0 0.00 0.00 0.00 79 1017.1
20260830192517 75 203 3.0 5.0 0.00 0.00 0.00 79 1017.3
20260830191517 75 203 3.0 6.0 0.00 0.00 0.00 79 1017.5
20260830190517 76 225 3.0 5.0 0.00 0.00 0.00 79 1017.9
20260830185537 76 248 4.0 6.0 0.00 0.00 0.00 77 1018.1
20260830184517 77 225 4.0 6.0 0.00 0.00 0.00 76 1018.3
20260830183537 77 293 1.0 2.0 0.00 0.00 0.00 73 1018.4
20260830182517 77 293 1.0 2.0 0.00 0.00 0.00 73 1018.5
20260830181517 77 293 1.0 3.0 0.00 0.00 0.00 71 1018.5
20260830180517 77 315 1.0 2.0 0.00 0.00 0.00 71 1018.5
20260830175517 77 315 2.0 4.0 0.00 0.00 0.00 71 1018.5
20260830174517 77 315 1.0 3.0 0.00 0.00 0.00 71 1018.5
20260830173517 77 0 3.0 4.0 0.00 0.00 0.00 70 1018.7
20260830172517 77 23 1.0 4.0 0.00 0.00 0.00 71 1018.7
20260830171517 77 338 2.0 4.0 0.00 0.00 0.00 70 1018.8
20260830170517 77 338 3.0 6.0 0.00 0.00 0.00 70 1018.9
20260830165517 77 270 2.0 4.0 0.00 0.00 0.00 75 1019.0
20260830164517 76 270 1.0 3.0 0.00 0.00 0.00 76 1019.1
20260830163517 75 293 1.0 3.0 0.00 0.00 0.00 76 1019.1
20260830162517 76 293 1.0 3.0 0.00 0.00 0.00 77 1019.3
20260830161637 75 293 2.0 5.0 0.00 0.00 0.00 79 1019.4
20260830160517 75 203 2.0 4.0 0.00 0.00 0.00 79 1019.4
20260830155517 75 315 1.0 3.0 0.00 0.00 0.00 80 1019.2
20260830154637 74 0.0 1.0 0.00 0.00 0.00 80 1019.2
20260830153537 74 0.0 1.0 0.00 0.00 0.00 80 1019.2
20260830152517 74 315 1.0 3.0 0.00 0.00 0.00 79 1019.4
20260830151517 74 0 2.0 3.0 0.00 0.00 0.00 78 1019.2
20260830150517 74 0 1.0 3.0 0.00 0.00 0.00 78 1019.0
20260830145537 73 225 1.0 3.0 0.00 0.00 0.00 78 1018.8
20260830144537 73 248 2.0 2.0 0.00 0.00 0.00 78 1018.7
20260830143537 73 248 1.0 2.0 0.00 0.00 0.00 78 1018.6
20260830142537 73 248 2.0 3.0 0.00 0.00 0.00 77 1018.5
20260830141618 73 225 3.0 5.0 0.00 0.00 0.00 75 1018.3
20260830140537 74 225 4.0 7.0 0.00 0.00 0.00 75 1018.2
20260830135517 73 203 5.0 9.0 0.00 0.00 0.00 75 1018.1
20260830134517 73 203 5.0 7.0 0.00 0.00 0.00 77 1017.9
20260830133517 72 203 4.0 7.0 0.00 0.00 0.00 77 1017.9
20260830132517 72 203 6.0 8.0 0.00 0.00 0.00 77 1017.9
20260830131517 71 203 5.0 8.0 0.00 0.00 0.00 77 1017.8
20260830130517 71 203 5.0 8.0 0.00 0.00 0.00 77 1017.9
20260830125517 70 225 5.0 7.0 0.00 0.00 0.00 79 1018.0
20260830124517 69 203 5.0 8.0 0.00 0.00 0.00 80 1018.0
20260830123517 69 203 5.0 8.0 0.00 0.00 0.00 80 1017.9
20260830122537 68 203 5.0 8.0 0.00 0.00 0.00 79 1017.8
20260830121517 68 203 4.0 7.0 0.00 0.00 0.00 80 1018.1
20260830120517 68 203 4.0 7.0 0.00 0.00 0.00 80 1018.2
20260830115517 68 203 3.0 7.0 0.00 0.00 0.00 80 1018.3
20260830114517 67 180 3.0 6.0 0.00 0.00 0.00 81 1018.4
20260830113517 67 180 2.0 5.0 0.00 0.00 0.00 82 1018.3
20260830112537 67 180 1.0 3.0 0.00 0.00 0.00 82 1018.2
20260830111518 66 0.0 2.0 0.00 0.00 0.00 82 1018.2
20260830110517 66 0.0 2.0 0.00 0.00 0.00 82 1018.1
20260830105517 66 0.0 2.0 0.00 0.00 0.00 82 1018.2
20260830104517 66 0.0 0.0 0.00 0.00 0.00 82 1018.2
20260830103517 67 0.0 0.0 0.00 0.00 0.00 82 1018.1
20260830102517 67 203 1.0 2.0 0.00 0.00 0.00 82 1018.3
20260830101517 66 180 1.0 2.0 0.00 0.00 0.00 81 1018.3
20260830100517 67 203 1.0 2.0 0.00 0.00 0.00 81 1018.4
20260830095518 67 180 1.0 2.0 0.00 0.00 0.00 81 1018.4
20260830094515 66 203 1.0 3.0 0.00 0.00 0.00 81 1018.3
20260830093535 67 0.0 0.0 0.00 0.00 0.00 81 1018.3
20260830092535 67 180 1.0 3.0 0.00 0.00 0.00 81 1018.3
20260830091515 66 203 2.0 4.0 0.00 0.00 0.00 81
20260830090515 66 180 2.0 4.0 0.00 0.00 0.00 81
20260830085516 66 180 2.0 5.0 0.00 0.00 0.00 82
20260830084515 66 180 2.0 4.0 0.00 0.00 0.00 82
20260830083515 66 180 2.0 5.0 0.00 0.00 0.00 83
20260830082515 66 203 2.0 4.0 0.00 0.00 0.00 84
20260830081515 65 180 3.0 6.0 0.00 0.00 0.00 86
20260830080515 65 203 1.0 4.0 0.00 0.00 0.00 87
20260830075515 64 203 1.0 3.0 0.00 0.00 0.00 88
20260830074515 64 0.0 2.0 0.00 0.00 0.00 89
20260830073556 64 0.0 0.0 0.00 0.00 0.00 89
20260830072515 64 0.0 1.0 0.00 0.00 0.00 90
20260830071515 63 0.0 1.0 0.00 0.00 0.00 89
20260830070515 63 0.0 0.0 0.00 0.00 0.00 89
20260830065515 63 0.0 0.0 0.00 0.00 0.00 89
20260830064515 63 0.0 0.0 0.00 0.00 0.00 89 1018.6
20260830063516 63 0.0 0.0 0.00 0.00 0.00 89 1018.6
20260830062515 62 0.0 0.0 0.00 0.00 0.00 89 1018.7
20260830061536 62 0.0 0.0 0.00 0.00 0.00 89 1018.8
20260830060515 62 0.0 0.0 0.00 0.00 0.00 89 1018.9
20260830055515 62 0.0 0.0 0.00 0.00 0.00 88 1019.0
20260830054516 62 0.0 0.0 0.00 0.00 0.00 88 1019.0